Wetbulb
51.53 53.43 52.77 53.75 54.27 54.51 54.71 55.38 55.81 56.21 56.20 56.91 57.84 58.22 58.79 59.23 60.14 60.23 60.63 61.49 61.48 62.16 63.58 64.15 64.37 65.17 65.24 66.04 67.00 67.27 65.95 64.64 63.57 65.39 63.69 65.15 64.72 65.63 65.17 65.06 65.22 65.75 64.92
52.38 52.21 52.70 54.15 54.55 54.80 55.40 55.54 55.78 55.66 55.84 56.79 57.55 57.98 58.59 59.34 60.01 59.51 60.15 61.84 61.51 61.55 62.14 63.08 64.47 65.71 65.48 65.79 66.34 66.06 65.53 65.41 64.40 62.43 65.46 64.37 64.21 63.31 63.96 63.27 63.77 65.80 65.75
52.48 52.20 51.89 52.33 53.57 54.17 55.29 56.06 55.34 55.78 55.70 56.06 56.96 57.33 58.07 59.22 59.93 60.32 61.08 61.09 61.01 61.22 61.77 62.29 62.57 63.59 64.61 65.56 65.59 65.20 65.02 64.99 65.07 64.27 64.78 63.88 62.41 62.39 61.74 62.59 62.89 64.99 64.22
50.04 51.28 51.38 51.75 52.92 54.06 55.06 55.89 55.94 56.14 55.97 55.80 56.15 57.10 58.16 58.99 60.04 60.27 59.85 59.34 59.75 60.62 61.07 61.72 62.44 62.97 62.95 64.37 65.08 65.19 64.43 63.99 64.17 63.56 62.97 61.63 61.30 61.22 61.40 61.29 61.26 62.18 62.58
49.41 48.63 49.03 50.64 51.75 53.10 53.93 54.66 55.43 55.49 55.71 56.01 55.76 56.17 57.56 58.29 58.55 58.40 58.75 58.95 58.84 58.18 59.04 60.86 62.71 61.93 60.08 59.82 61.47 62.54 64.59 64.11 64.50 62.10 61.69 60.31 59.92 59.95 60.86 61.36 62.01 60.95 61.28
48.36 48.55 50.20 50.51 51.57 51.63 52.50 53.21 53.46 53.65 53.94 54.75 54.61 55.36 55.72 56.68 51.85 51.35 56.34 57.93 57.55 57.15 56.55 58.40 60.62 59.34 58.95 55.59 55.29 55.19 61.13 64.43 62.69 61.85 61.81 60.52 60.07 60.16 60.62 60.89 60.56 59.13 58.99
47.13 48.16 49.22 50.11 50.65 50.80 52.12 52.62 52.86 52.76 53.04 53.08 54.07 54.90 55.20 56.19 49.04 48.63 50.24 55.55 54.69 55.08 56.03 56.56 56.49 58.42 57.94 60.82 58.10 56.21 54.11 54.21 57.62 63.00 62.58 61.31 60.83 60.69 61.02 59.47 59.60 60.01 60.40
46.13 47.14 48.13 48.97 49.37 50.41 50.83 50.93 51.37 52.21 52.07 52.16 53.09 54.21 54.59 54.91 47.96 46.42 47.51 53.65 53.74 54.85 54.69 54.54 55.84 57.59 59.11 58.67 60.13 61.49 64.29 60.30 59.20 60.50 64.58 63.45 63.43 62.74 62.39 61.79 61.88 60.80 60.15
43.43 44.93 46.47 47.73 48.22 49.22 49.07 49.78 50.89 50.62 50.97 51.27 52.26 52.33 52.61 53.57 46.30 45.46 47.04 52.07 52.41 52.73 53.70 54.41 54.75 54.79 49.93 46.60 55.10 56.71 61.02 63.19 52.56 52.21 54.37 52.39 49.67 50.58 56.81 61.70 59.61 58.79 58.43
42.40 43.93 46.05 47.50 47.97 48.35 49.12 49.20 49.78 51.00 51.02 51.57 51.25 51.90 50.66 52.20 45.50 44.30 46.85 52.41 51.65 51.45 52.63 52.85 47.84 50.49 46.48 45.10 52.35 56.56 59.12 62.08 57.51 56.22 57.37 53.28 52.37 52.52 50.74 63.68 61.52 60.54 59.06
43.62 44.47 44.74 45.89 46.25 47.35 47.99 48.88 49.42 49.53 50.60 50.96 51.08 51.90 52.10 50.94 51.34 43.48 43.54 52.66 51.80 50.82 51.06 51.33 52.48 46.12 44.60 43.26 43.15 53.66 57.20 61.16 56.06 58.91 59.20 58.53 59.10 58.13 59.12 61.17 63.18 62.51 59.58
42.20 41.89 42.23 43.14 44.19 45.19 45.20 46.22 47.12 47.34 47.39 48.23 49.50 50.30 51.83 52.68 47.57 43.37 42.90 46.09 48.02 50.93 50.68 51.38 51.86 44.53 43.32 42.58 43.61 45.31 44.24 50.54 59.74 59.42 58.51 57.77 58.41 58.03 59.83 60.82 60.91 60.97 61.30
42.74 42.58 43.05 43.70 43.85 44.30 44.32 44.86 45.31 46.08 45.81 45.89 46.42 46.87 48.59 51.14 51.12 44.41 42.80 42.27 43.79 50.31 51.98 49.20 44.85 42.77 40.56 42.85 43.31 43.15 43.69 58.29 59.22 58.31 57.75 57.57 58.54 58.81 58.80 58.99 60.05 60.38 60.70
41.56 41.96 42.79 42.82 43.19 43.87 43.97 44.41 44.00 44.18 44.43 45.08 45.77 47.12 48.77 49.81 49.80 49.34 46.90 45.78 44.59 47.63 47.24 49.40 47.30 45.06 42.03 46.41 50.36 48.55 54.08 60.07 59.19 58.45 57.13 58.13 58.19 58.34 58.43 59.19 58.61 59.23 59.00
41.97 42.60 42.96 43.71 43.84 43.89 44.41 44.90 45.72 46.96 46.06 45.87 46.86 48.01 48.36 48.77 48.50 46.43 46.78 47.75 48.14 48.14 48.63 50.51 51.48 53.08 52.99 52.89 54.12 54.00 58.99 58.65 58.09 57.42 57.04 57.12 57.26 57.54 57.61 58.99 58.28 58.24 58.91
42.18 43.12 44.12 44.55 44.81 44.75 44.61 45.08 43.26 43.70 43.68 42.49 42.30 46.22 48.71 45.74 42.55 42.02 41.98 42.20 42.15 41.77 49.40 51.22 51.82 52.73 52.87 53.14 54.80 56.30 57.77 56.45 57.94 57.62 57.96 58.06 57.31 57.12 57.69 59.17 60.03 59.52 58.34
43.02 44.38 45.49 45.65 46.41 46.73 45.96 45.42 44.77 44.95 42.85 42.49 42.14 41.07 41.42 43.69 41.28 41.17 40.93 40.83 40.29 41.86 50.43 50.63 51.30 52.60 53.93 55.03 57.11 57.75 57.55 58.57 58.75 58.16 57.98 58.52 58.36 58.47 57.16 58.27 58.25 57.42 56.11
43.49 41.97 41.50 41.41 41.76 42.75 43.84 45.08 47.28 46.80 45.05 43.36 41.44 42.63 40.57 39.86 40.07 40.59 40.54 39.77 41.39 42.88 49.15 49.27 50.66 54.34 55.90 57.58 58.12 58.56 57.75 58.29 58.58 57.86 58.65 58.90 58.83 57.92 56.85 57.80 57.32 57.22 57.08
39.33 39.82 40.57 41.58 42.94 43.94 47.93 48.24 48.13 48.68 46.31 45.02 45.44 40.70 41.11 38.88 39.80 39.28 39.59 48.29 47.81 48.20 48.79 50.29 51.71 55.54 58.04 59.07 58.86 58.22 57.60 58.25 57.67 58.44 59.10 58.90 57.77 56.68 56.56 57.14 55.75 47.30 50.39
38.73 38.56 39.25 43.14 49.48 48.89 48.40 48.02 47.98 47.68 45.85 45.57 45.00 44.58 44.16 41.86 43.57 43.37 47.50 49.35 50.05 50.50 50.75 51.40 54.54 58.46 58.20 58.32 58.20 58.18 57.92 56.76 58.19 58.00 57.81 58.37 57.04 56.95 55.99 55.70 55.58 54.45 55.15
39.05 40.91 40.53 53.25 50.48 48.28 48.02 47.50 47.17 46.42 45.74 45.60 46.07 45.17 42.21 47.08 46.11 47.39 48.51 49.65 50.28 49.68 52.18 57.08 58.31 57.76 58.23 58.65 58.20 57.79 57.90 57.53 57.65 57.58 57.69 58.30 56.77 55.55 55.78 56.68 55.12 54.28 55.01
40.06 45.19 56.61 52.02 52.07 49.94 48.38 47.67 47.01 46.90 47.01 46.91 46.19 43.57 38.00 49.15 49.04 49.14 49.53 49.59 49.86 50.55 59.29 59.20 58.21 58.48 59.03 58.71 58.71 58.31 58.15 57.77 57.85 57.59 58.05 58.07 56.62 55.56 56.51 56.02 55.43 54.78 55.05
44.69 55.47 55.17 54.79 54.87 46.83 50.72 50.35 48.94 48.45 48.26 47.99 46.76 46.07 48.25 48.52 48.71 48.99 49.45 51.76 56.32 57.83 58.38 58.34 58.67 58.37 59.47 59.90 60.18 60.00 58.96 58.25 58.69 59.44 58.18 57.28 56.37 56.58 56.99 56.09 55.99 55.92 56.13
55.77 55.35 53.97 53.17 52.95 52.42 51.83 51.40 50.92 46.60 49.98 48.56 47.08 46.91 48.08 51.89 52.93 53.92 54.28 54.84 54.62 55.38 57.13 58.58 58.55 57.98 58.30 59.16 59.93 59.54 59.40 59.11 59.31 59.53 59.21 58.07 57.19 54.05 56.86 56.58 54.90 52.93 51.76
55.65 54.35 53.55 52.90 51.95 51.17 50.50 49.62 49.10 49.12 49.26 49.10 48.11 47.99 48.38 49.23 49.09 49.12 49.68 50.61 50.24 50.67 51.71 53.52 55.88 56.79 57.84 58.39 56.45 56.05 43.05 40.25 56.32 49.60 58.77 57.92 56.30 55.67 54.81 54.22 51.63 50.92 47.96
53.13 52.08 51.10 50.60 50.18 49.02 48.07 46.98 46.29 45.99 45.27 45.09 45.14 45.06 45.23 45.59 45.95 46.27 46.62 46.58 46.03 46.08 46.58 47.97 49.23 50.75 51.41 50.88 48.74 39.84 37.89 38.98 46.05 42.97 55.03 54.76 52.44 50.08 47.78 44.37 42.34 42.71 41.82
MSLP
1003.73 1003.79 1003.92 1003.89 1003.61 1004.22 1004.62 1004.95 1005.56 1006.10 1006.47 1006.76 1006.79 1006.96 1007.09 1007.20 1007.32 1007.46 1007.55 1007.73 1007.95 1008.26 1008.51 1008.81 1008.78 1008.98 1008.16 1008.58 1009.02 1008.88 1009.01 1009.38 1008.84 1008.82 1008.92 1008.73 1008.80 1008.97 1008.36 1008.02 1008.10 1008.13 1008.35
1002.53 1003.66 1004.12 1003.90 1004.29 1004.92 1004.26 1004.40 1005.00 1005.40 1005.88 1006.18 1006.51 1006.80 1006.90 1006.87 1006.91 1007.24 1007.42 1007.58 1007.72 1007.86 1007.78 1007.85 1007.68 1007.76 1008.05 1008.50 1008.37 1007.70 1008.09 1008.37 1008.30 1008.31 1008.10 1008.02 1008.19 1008.15 1007.61 1007.98 1008.24 1008.28 1008.26
1002.42 1002.60 1002.78 1003.04 1003.70 1004.07 1004.48 1004.43 1004.83 1004.87 1005.22 1005.53 1005.89 1006.08 1006.21 1006.40 1006.60 1006.80 1007.02 1007.17 1007.33 1007.41 1007.40 1007.50 1007.46 1007.50 1007.76 1007.83 1007.22 1007.80 1007.66 1007.34 1007.74 1007.83 1007.51 1007.71 1007.92 1007.48 1007.30 1008.69 1008.29 1008.27 1008.27
1002.42 1002.15 1002.12 1002.46 1002.69 1002.98 1003.01 1003.15 1003.50 1004.28 1004.62 1004.72 1004.94 1005.28 1005.45 1005.78 1006.08 1006.24 1006.44 1006.65 1006.84 1006.96 1007.08 1007.16 1007.11 1007.18 1007.32 1007.09 1006.55 1007.02 1006.68 1007.02 1007.04 1007.25 1007.08 1007.54 1007.60 1007.53 1007.62 1008.23 1008.12 1008.20 1008.31
1002.90 1002.86 1002.84 1002.41 1002.03 1002.20 1002.28 1002.52 1002.52 1002.64 1003.18 1003.94 1004.06 1004.42 1004.81 1005.23 1005.49 1005.70 1005.88 1006.06 1006.27 1006.51 1006.66 1006.73 1006.81 1006.88 1006.86 1006.71 1006.68 1006.48 1006.27 1006.13 1006.42 1006.52 1006.68 1007.07 1007.11 1006.78 1007.12 1007.50 1007.62 1007.88 1008.14
1002.86 1002.60 1002.06 1002.18 1001.69 1001.53 1001.54 1001.68 1002.04 1002.02 1002.38 1002.67 1003.36 1003.54 1003.97 1004.31 1004.58 1004.94 1005.37 1005.73 1005.99 1006.30 1006.54 1006.66 1006.77 1006.60 1006.36 1006.14 1005.81 1005.76 1005.83 1005.39 1005.82 1005.74 1006.08 1006.11 1006.06 1005.90 1006.68 1006.77 1007.37 1007.91 1008.12
1002.49 1001.92 1001.60 1001.49 1001.28 1001.04 1001.00 1001.20 1001.22 1001.33 1001.28 1001.78 1002.10 1002.63 1002.85 1003.18 1003.59 1004.18 1004.65 1005.15 1005.60 1005.83 1006.14 1006.25 1006.26 1006.18 1006.01 1005.69 1005.38 1005.20 1004.83 1004.53 1004.87 1004.54 1005.08 1005.07 1005.05 1004.96 1005.91 1006.34 1006.78 1007.12 1007.20
1002.10 1001.70 1001.34 1000.98 1000.78 1000.58 1000.48 1000.58 1000.50 1000.68 1000.66 1000.76 1001.14 1001.56 1001.83 1002.00 1002.58 1003.23 1003.88 1004.54 1005.05 1005.32 1005.56 1005.74 1005.87 1005.65 1005.47 1005.29 1005.08 1004.58 1003.92 1003.79 1003.63 1003.97 1004.00 1003.82 1003.98 1004.41 1004.98 1005.12 1005.62 1006.49 1007.21
1001.04 1000.55 1000.30 1000.18 999.87 999.66 999.50 999.48 999.56 999.88 999.90 999.84 1000.22 1000.67 1000.86 1001.16 1001.77 1002.38 1003.10 1003.91 1004.35 1004.64 1004.94 1005.01 1005.13 1005.12 1004.89 1004.74 1004.95 1004.41 1003.65 1002.95 1002.78 1003.09 1003.40 1003.20 1003.72 1003.78 1004.50 1005.12 1005.81 1006.46 1006.86
1000.30 999.86 999.51 999.20 998.89 998.55 998.38 998.34 998.44 998.57 998.70 999.04 999.18 999.31 999.71 1000.18 1000.63 1001.44 1002.06 1002.67 1003.46 1003.96 1004.22 1004.39 1004.33 1004.47 1004.28 1004.04 1004.49 1004.21 1003.48 1002.39 1002.61 1003.15 1003.33 1003.32 1003.58 1003.99 1003.74 1004.13 1004.82 1005.38 1006.13
999.34 998.98 998.77 998.60 998.31 998.06 997.88 997.84 997.76 997.74 997.77 997.87 998.13 998.48 998.72 999.08 999.58 1000.37 1001.04 1001.59 1002.13 1002.86 1003.30 1003.65 1003.58 1003.60 1003.52 1003.39 1003.85 1003.58 1003.01 1002.14 1002.26 1002.39 1002.72 1003.25 1003.81 1004.39 1004.05 1004.23 1004.31 1004.58 1005.51
998.34 998.02 997.68 997.46 997.26 996.95 996.82 996.76 996.81 996.90 997.01 997.09 997.18 997.34 997.47 997.91 998.56 999.43 1000.16 1000.49 1001.06 1001.58 1002.08 1002.42 1002.66 1002.82 1002.76 1002.75 1002.98 1002.50 1002.70 1002.12 1001.67 1002.04 1002.14 1002.96 1003.45 1004.00 1003.95 1003.98 1004.28 1004.58 1005.16
997.02 996.55 996.20 995.91 995.66 995.55 995.47 995.26 995.24 995.34 995.39 995.48 995.77 996.02 996.20 996.77 997.36 998.16 999.17 999.95 1000.16 1000.67 1000.85 1001.27 1001.70 1002.33 1002.75 1002.65 1001.99 1001.87 1001.72 1001.17 1001.04 1001.53 1001.82 1002.57 1003.13 1003.68 1003.82 1003.95 1004.35 1004.82 1005.27
995.70 995.22 994.75 994.45 994.08 993.94 993.89 993.80 993.74 993.74 993.86 994.10 994.22 994.30 994.82 995.46 996.24 997.26 998.36 999.12 999.63 1000.13 1000.54 1000.81 1001.31 1001.74 1002.00 1001.96 1001.40 1001.06 1000.74 1000.37 1000.57 1000.83 1001.73 1002.44 1003.25 1003.36 1003.53 1003.64 1004.28 1004.82 1005.28
994.19 993.59 993.20 992.81 992.31 991.97 991.73 991.77 991.79 991.64 991.74 992.00 992.39 992.96 993.47 994.16 995.18 996.26 997.18 998.09 998.76 999.21 999.92 1000.48 1000.93 1001.10 1000.86 1000.80 1000.66 1000.36 1000.10 1000.16 1000.50 1000.56 1001.45 1002.54 1002.80 1003.06 1003.28 1003.80 1004.41 1004.94 1004.75
992.31 991.42 991.04 990.63 990.00 989.79 989.68 989.63 989.67 989.90 990.22 990.65 990.94 991.54 992.12 992.82 993.93 995.08 996.03 996.86 997.54 998.31 999.44 999.64 999.67 999.72 999.77 999.95 999.87 999.76 999.76 999.70 999.78 1000.72 1001.40 1001.96 1002.33 1002.82 1003.17 1003.91 1004.41 1004.46 1004.40
990.65 989.84 989.07 988.36 987.58 986.88 986.73 986.91 987.08 987.61 988.42 989.24 989.98 991.02 991.56 992.24 993.06 994.18 995.44 996.30 997.03 998.16 998.20 998.30 998.41 998.46 998.51 998.74 998.92 998.94 999.17 999.46 999.77 1000.02 1000.82 1001.52 1002.12 1002.60 1003.36 1003.95 1004.09 1004.24 1004.64
989.16 988.40 987.92 986.65 985.80 985.20 985.02 984.87 984.96 985.30 986.23 987.44 988.86 989.94 991.06 992.03 992.89 993.79 994.65 995.80 997.53 997.68 997.22 997.19 997.39 997.40 997.42 997.51 997.70 998.02 998.44 999.36 999.90 999.80 1000.79 1001.47 1001.95 1002.67 1003.35 1003.61 1003.98 1004.11 1004.74
988.11 987.04 985.85 984.81 984.04 983.49 982.67 982.43 982.72 983.28 984.44 986.02 987.58 989.39 990.58 991.75 992.45 993.31 994.15 994.84 995.51 996.14 996.27 996.32 996.48 996.34 996.27 996.57 997.02 997.59 997.98 999.04 999.36 1000.00 1000.81 1001.40 1002.00 1002.62 1002.97 1003.50 1003.94 1004.48 1004.89
986.56 985.36 984.39 983.38 982.27 982.15 981.64 980.82 980.90 982.44 983.87 985.25 986.78 988.41 990.04 991.55 992.64 993.53 993.60 993.91 994.33 994.81 995.06 995.16 995.26 995.06 995.44 996.02 996.68 997.19 997.96 999.06 999.34 1000.16 1000.80 1001.45 1002.01 1002.42 1002.97 1003.44 1003.97 1004.55 1004.91
985.76 984.10 982.68 982.07 982.35 982.25 981.96 981.74 981.99 982.94 984.08 985.31 986.54 987.97 989.04 990.26 991.33 992.30 992.97 993.37 993.50 993.78 993.72 993.84 993.96 994.45 995.12 995.86 996.58 997.38 998.14 998.76 999.48 1000.01 1000.90 1001.54 1002.01 1002.61 1003.02 1003.46 1004.07 1004.50 1005.00
985.12 983.50 981.96 982.36 982.41 982.68 982.92 983.12 983.46 984.04 984.87 985.83 987.14 988.57 989.43 990.02 990.97 991.66 992.19 992.54 992.72 992.78 992.44 992.85 993.62 994.14 994.79 995.56 996.48 997.33 997.92 998.64 999.45 1000.23 1000.86 1001.54 1002.20 1002.68 1003.02 1003.56 1004.17 1004.66 1005.16
984.34 983.16 982.62 982.48 982.84 983.19 983.56 983.94 984.56 985.11 985.78 986.66 987.77 988.75 989.25 989.88 990.51 991.17 991.63 991.99 992.03 991.85 992.37 993.06 993.69 994.54 995.24 995.96 996.55 997.06 997.68 998.55 999.28 1000.06 1000.93 1001.67 1002.12 1002.56 1003.17 1003.80 1004.39 1004.88 1005.25
984.06 983.71 983.70 983.77 983.89 984.15 984.46 984.78 985.37 985.93 986.66 987.46 988.36 989.11 989.45 989.89 990.24 990.56 990.85 991.24 991.84 992.37 992.92 993.59 994.23 994.87 995.57 996.16 996.76 997.47 998.14 998.85 999.66 1000.49 1000.96 1001.41 1002.06 1002.88 1003.54 1004.19 1004.75 1005.28 1005.76
984.36 984.76 984.69 984.87 985.13 985.51 985.86 986.39 986.77 987.20 987.76 988.45 989.16 989.68 989.91 989.93 990.35 990.98 991.65 992.20 992.54 993.21 993.90 994.26 994.65 995.25 995.90 996.54 997.19 997.77 998.46 999.29 1000.25 1000.78 1001.25 1001.80 1002.52 1003.26 1003.95 1004.68 1005.28 1005.85 1006.40
985.90 986.08 986.18 986.36 986.71 987.09 987.49 987.96 988.48 988.88 989.12 989.46 989.86 990.10 990.86 991.33 991.82 992.31 992.92 993.41 993.99 994.65 995.17 995.62 996.06 996.42 996.92 997.54 997.90 998.38 999.27 999.80 1000.59 1000.77 1001.60 1002.38 1003.26 1004.09 1004.76 1005.43 1006.03 1006.69 1007.29
Wind_Speed
6 3 5 5 7 6 7 7 7 5 6 5 6 6 6 5 4 3 3 3 4 4 5 6 8 9 4 5 7 8 7 7 8 6 3 3 4 6 4 3 4 5 4
7 5 6 3 2 5 7 9 7 9 6 8 6 6 5 5 4 4 4 3 4 4 4 4 5 3 5 8 7 8 8 8 8 12 5 3 5 5 3 1 2 3 4
5 8 6 6 7 8 9 7 7 10 10 8 7 8 7 7 7 6 6 5 5 5 5 5 6 6 7 6 5 8 8 6 7 6 6 3 3 1 4 3 3 4 2
6 5 8 9 10 13 14 13 12 11 11 11 10 10 9 8 7 6 6 5 5 5 4 5 5 6 8 8 6 9 7 6 7 8 4 4 3 2 2 3 4 3 4
5 5 7 8 7 8 9 10 12 13 13 12 11 11 10 9 7 9 8 7 6 5 4 6 5 7 10 10 6 9 11 7 6 4 4 3 4 2 5 3 4 2 3
7 8 5 6 6 7 8 9 10 12 12 11 12 13 12 9 12 14 10 8 7 6 6 6 7 8 10 12 14 14 13 8 7 5 5 6 6 5 3 5 4 3 3
10 10 9 8 7 7 8 9 12 12 11 14 14 13 13 14 16 17 16 8 7 7 6 6 6 7 9 9 10 15 16 14 14 8 10 9 4 9 7 6 6 5 4
14 13 11 11 11 10 9 10 10 8 11 12 13 13 13 12 16 18 17 10 7 8 7 7 7 9 10 10 10 12 12 8 10 9 14 11 11 7 11 7 7 5 2
17 16 15 14 15 14 13 11 10 8 9 11 12 13 14 13 18 19 16 10 9 10 8 8 8 8 11 14 9 11 13 8 2 9 10 5 9 13 10 7 5 5 4
16 16 16 15 16 15 14 12 9 9 11 9 11 12 15 14 16 20 18 10 10 8 7 8 10 11 12 15 9 9 12 13 6 4 4 2 5 8 14 8 8 7 5
16 14 14 14 14 13 11 8 9 10 11 11 11 11 12 14 14 20 21 13 10 9 8 6 7 12 15 14 7 9 12 12 8 8 6 5 5 5 6 5 7 7 5
18 19 18 17 15 15 18 15 15 13 13 13 12 11 11 12 17 19 22 23 15 11 11 8 8 12 14 13 9 10 15 12 7 6 7 6 4 5 5 5 5 4 2
17 18 18 18 17 16 16 16 14 15 14 14 13 14 14 12 11 19 24 24 17 12 8 10 10 8 8 11 14 14 10 8 8 7 6 5 5 5 6 5 4 4 3
19 19 18 18 18 17 14 14 14 15 15 14 15 15 13 12 11 10 10 12 15 12 8 6 6 6 8 11 8 5 7 8 9 9 7 5 6 5 6 4 3 4 4
18 18 18 16 17 16 17 15 15 17 16 15 14 14 13 12 11 14 15 10 10 12 8 4 5 6 5 5 5 5 6 7 7 7 8 7 6 6 4 4 4 4 3
18 15 14 15 16 15 15 15 27 29 28 27 18 15 14 15 22 22 20 19 21 17 7 7 8 6 6 6 7 7 6 8 8 8 8 8 8 6 6 4 5 5 4
19 17 15 15 15 14 15 15 15 19 36 26 27 19 15 9 24 24 21 20 17 13 9 9 8 7 7 8 9 8 7 6 8 9 8 8 8 7 6 5 4 3 2
18 21 15 17 15 14 13 14 13 14 13 15 18 22 17 15 21 23 23 16 7 4 7 8 8 9 9 9 10 8 7 7 7 8 8 8 8 8 6 6 4 4 4
16 13 14 13 13 14 10 10 10 9 11 11 12 13 16 21 21 19 23 12 11 9 8 8 9 10 10 8 8 8 9 8 8 8 8 7 7 6 5 6 5 5 4
15 21 19 12 6 1 3 4 10 10 12 11 11 12 11 10 9 10 11 10 8 7 8 10 9 8 7 8 8 8 9 8 8 7 7 7 5 5 5 6 5 5 3
12 14 13 2 5 4 6 6 10 11 11 11 12 13 18 14 13 12 10 8 6 7 7 10 9 9 8 8 8 8 8 8 8 8 7 7 6 5 5 6 5 4 4
11 10 3 6 5 6 7 8 8 9 10 11 12 11 16 10 9 9 7 6 6 7 8 8 8 8 8 9 9 9 10 10 8 8 8 7 7 6 6 6 5 4 5
8 8 9 9 7 7 8 8 9 9 10 11 11 11 11 7 7 7 6 7 8 8 8 8 8 8 8 8 8 9 10 9 8 8 9 8 7 7 6 5 5 5 4
4 10 10 10 10 11 10 9 8 9 10 10 10 8 6 7 9 10 9 9 9 8 8 8 9 12 11 9 8 7 7 8 8 9 11 9 8 7 6 5 5 6 6
9 9 10 9 10 10 11 12 12 12 12 11 10 9 8 10 11 11 10 9 9 9 9 8 7 12 12 13 10 11 10 10 10 9 7 9 9 9 7 7 7 8 9
9 10 9 9 10 10 10 11 11 10 11 10 10 11 11 11 10 11 10 11 10 10 11 8 11 14 14 10 12 12 11 11 10 11 10 10 10 8 8 10 12 9 9
Wind_Direction
230 251 296 235 197 175 184 192 205 192 209 219 214 212 215 217 217 189 195 221 210 208 199 213 218 221 254 250 253 229 226 219 247 254 226 208 215 241 219 214 196 179 183
180 189 236 227 262 272 208 199 190 212 198 217 207 206 223 225 215 208 219 215 222 248 266 264 262 248 240 234 229 241 236 214 231 251 260 229 226 230 185 224 211 200 190
201 189 211 203 194 214 231 220 211 208 213 210 200 212 213 217 206 201 205 215 219 228 236 252 273 278 269 256 237 241 230 213 213 237 251 225 231 183 79 242 209 213 201
314 277 238 227 214 215 216 214 196 210 218 210 208 215 209 212 215 210 206 215 229 236 245 251 254 265 270 282 280 262 230 221 220 224 222 226 215 180 135 195 214 212 226
308 286 266 263 231 226 227 226 219 205 206 220 209 205 207 202 210 209 207 207 207 232 259 271 262 258 267 277 274 277 250 223 232 197 209 215 215 149 204 186 218 166 238
298 287 288 278 269 241 225 210 212 214 217 204 209 206 203 209 210 199 191 202 201 210 233 242 253 269 269 266 276 258 241 218 218 181 224 223 214 198 174 181 176 170 241
286 287 281 264 249 244 239 229 224 218 203 214 215 209 206 206 198 201 198 198 201 203 217 242 259 259 267 274 279 276 235 224 221 194 226 221 211 206 182 175 180 182 201
273 267 265 265 260 247 226 223 223 215 218 212 219 218 209 207 196 198 199 204 199 206 214 224 238 257 262 272 282 289 284 201 211 221 225 223 227 197 201 191 190 151 107
278 277 272 263 257 248 239 223 216 214 215 211 211 211 210 215 196 199 193 196 204 210 213 228 233 253 262 267 273 281 289 262 192 231 240 209 185 176 171 135 151 156 207
278 278 277 270 261 251 244 231 212 215 220 208 216 209 208 217 197 200 192 198 204 208 211 233 238 244 257 270 273 278 278 265 183 182 179 136 182 192 164 177 161 173 175
267 269 273 270 263 259 257 241 229 220 227 222 219 214 212 210 209 199 194 201 204 205 209 217 238 228 250 261 234 264 274 276 207 173 159 154 153 191 175 166 167 159 169
270 271 268 263 258 257 251 251 244 240 238 234 233 232 226 218 208 198 195 204 197 197 207 211 232 216 252 270 287 268 261 228 177 182 153 159 163 189 172 161 163 159 178
269 267 262 259 256 252 250 246 241 235 231 230 233 236 234 224 209 193 192 199 194 198 203 206 218 224 260 281 258 259 240 204 174 171 159 165 186 184 156 123 121 142 162
266 263 260 257 256 251 246 240 236 232 232 233 229 227 226 216 202 189 195 199 199 203 187 207 213 237 264 268 279 242 214 192 181 165 160 150 152 153 150 116 117 144 179
264 260 259 255 248 245 237 232 231 229 222 218 217 216 211 202 194 174 179 184 186 202 177 190 224 222 243 271 238 206 209 171 167 145 141 162 155 147 118 136 145 168 158
264 260 255 253 246 237 238 237 227 228 223 227 219 214 217 211 164 173 179 178 183 171 177 203 218 219 220 231 226 205 195 189 149 150 150 154 151 147 133 146 168 170 137
267 267 263 255 256 246 234 230 229 221 223 217 214 208 202 183 169 170 175 180 174 141 201 210 216 220 228 215 208 188 180 174 166 145 145 151 147 139 140 164 146 120 103
276 277 274 266 260 254 242 238 235 220 205 204 204 197 192 176 168 172 178 144 136 220 198 207 214 220 220 205 184 178 143 150 175 132 144 150 149 151 160 152 149 126 141
283 278 270 265 261 250 236 222 209 195 173 176 178 184 161 157 164 168 157 179 186 189 199 203 212 226 210 185 159 152 148 163 152 141 149 149 145 151 144 142 127 121 122
286 276 264 267 250 19 319 271 170 156 148 150 153 160 154 138 165 171 183 182 176 180 202 208 211 182 156 143 142 147 144 154 136 141 139 141 142 139 140 137 136 141 150
290 290 275 113 83 53 40 63 105 123 134 143 150 146 152 157 165 169 173 173 179 201 229 205 163 147 138 137 139 140 146 134 143 134 143 144 132 130 129 137 135 122 147
287 286 18 117 93 95 79 77 90 107 118 122 120 138 144 153 157 163 168 177 192 217 193 150 140 143 147 144 146 147 144 139 136 139 139 140 141 137 139 128 126 146 160
294 42 47 48 88 116 110 109 108 109 110 115 130 146 158 147 155 167 187 209 186 136 121 128 130 134 138 141 142 143 140 144 139 142 146 145 140 138 139 129 136 139 141
31 62 64 64 68 73 73 81 88 96 111 112 123 133 151 169 158 143 119 103 101 103 115 125 135 138 129 125 123 123 125 127 137 148 142 138 131 136 115 113 112 107 100
59 61 60 65 72 77 78 74 72 78 84 94 99 103 107 97 93 88 89 92 88 90 83 87 94 107 115 124 118 113 109 113 128 123 121 115 113 110 110 108 107 102 95
65 63 58 60 64 66 71 77 77 74 75 74 74 72 81 85 85 85 82 83 82 76 75 70 75 87 92 92 103 106 106 104 102 99 105 105 103 96 95 95 90 89 92